This is the latest recevied weather packets stored in our database for station/object KC1TEM-13. If no packets are shown the sender has not sent any weather packets the latest 10 day(s).
| Time | Temp. | Humidity | Pressure | Rain* | Wind** | Luminosity | Snow |
|---|---|---|---|---|---|---|---|
| 1788526184 | 19.44° C | 99% | 1010.6 hPa | 0 mm | - | 160 W/m² | - |
| 1788525880 | 19.44° C | 99% | 1010.6 hPa | 0 mm | - | 81 W/m² | - |
| 1788525576 | 19.44° C | 99% | 1010.8 hPa | 0 mm | - | 88 W/m² | - |
| 1788525276 | 19.44° C | 99% | 1010.9 hPa | 0 mm | - | 85 W/m² | - |
| 1788524997 | 19.44° C | 99% | 1010.6 hPa | 0 mm | - | 149 W/m² | - |
| 1788524671 | 18.89° C | 99% | 1010.8 hPa | 0 mm | - | 100 W/m² | - |
| 1788524365 | 18.89° C | 99% | 1010.9 hPa | 0 mm | - | 108 W/m² | - |
| 1788524062 | 18.89° C | 99% | 1010.8 hPa | 0 mm | - | 98 W/m² | - |
| 1788523759 | 18.89° C | 99% | 1010.7 hPa | 0 mm | - | 80 W/m² | - |
| 1788523454 | 18.89° C | 99% | 1010.8 hPa | 0 mm | - | 95 W/m² | - |
| 1788523149 | 18.89° C | 99% | 1010.8 hPa | 0 mm | - | 65 W/m² | - |
| 1788522844 | 18.89° C | 99% | 1010.9 hPa | 0 mm | - | 70 W/m² | - |
| 1788522539 | 18.33° C | 99% | 1011 hPa | 0 mm | - | 54 W/m² | - |
| 1788522233 | 18.33° C | 99% | 1010.8 hPa | 0 mm | - | 77 W/m² | - |
| 1788521929 | 18.33° C | 99% | 1011 hPa | 0 mm | - | 60 W/m² | - |
| 1788521628 | 18.33° C | 99% | 1011 hPa | 0 mm | - | 57 W/m² | - |
| 1788521323 | 18.33° C | 99% | 1010.8 hPa | 0 mm | - | 54 W/m² | - |
| 1788521019 | 18.33° C | 99% | 1010.9 hPa | 0 mm | - | 44 W/m² | - |
| 1788520714 | 18.33° C | 99% | 1010.8 hPa | 0 mm | - | 38 W/m² | - |
| 1788520410 | 18.33° C | 99% | 1010.6 hPa | 0 mm | - | 36 W/m² | - |
| 1788520105 | 18.33° C | 99% | 1010.4 hPa | 0 mm | - | 32 W/m² | - |
| 1788519804 | 18.33° C | 99% | 1010.3 hPa | 0 mm | - | 30 W/m² | - |
| 1788519504 | 18.33° C | 99% | 1010.6 hPa | 0 mm | - | 24 W/m² | - |
| 1788519199 | 17.78° C | 99% | 1010.4 hPa | 0 mm | - | 20 W/m² | - |
| 1788518894 | 17.78° C | 99% | 1010.5 hPa | 0 mm | - | 16 W/m² | - |
* Rain latest hour (hover to see other rain measurements)
** Current wind speed in m/s (hover to see current wind gust speed)